{"data":{"norad_id":66796,"intl_designator":"2025-278F","name":"STARLINK-35964","alt_names":[],"object_type":"PAYLOAD","status":"ACTIVE","operator":null,"country":"US","launch_date":"2025-12-01","launch_site_code":"AFETR","launch_vehicle":null,"mission":null,"orbit_class":"UNKNOWN","rcs_meters":null,"size_class":null,"mass_kg":null,"dimensions":null,"purposes":["comms"],"wikipedia_slug":null,"has_3d_model":false,"image_url":null,"decayed_at":null,"tle_current":{"epoch":"2026-05-25T00:52:25.262400Z","epoch_age_seconds":65274,"freshness":"FRESH","line1":"1 66796U 25278F   26145.03640350  .00014593  00000+0  53896-3 0  9992","line2":"2 66796  43.0007  28.3062 0001086 266.7092  93.3636 15.27569189 27055","mean_motion":15.27569189,"eccentricity":0.0001086,"inclination_deg":43.0007,"raan_deg":28.3062,"arg_perigee_deg":266.7092,"mean_anomaly_deg":93.3636,"bstar":0.00053896,"rev_number":2705,"period_min":94.267415863675,"perigee_km":482.33633992816,"apogee_km":483.82659657946,"semimajor_km":6861.2184682538,"source":"CELESTRAK","updated_at":"2026-05-25T13:38:21.326453Z"}}}